HG8LXL-2 Weather Reports


time (UTC)temp
C
wind
direction
speed
KPH
gust
KPH
rain 1hr
cm
rain 24hr
cm
rain mn
cm
humidity
%
barometer
mb
20260906010554 17 0.0 0.0 0.00 0.00 0.00 74 1018.9
20260906010054 17 0.0 0.0 0.00 0.00 0.00 78 1018.9
20260906005554 16 0.0 0.0 0.00 0.00 0.00 80 1018.9
20260906005054 18 0.0 0.0 0.00 0.00 0.00 71 1018.8
20260906004554 17 0.0 0.0 0.00 0.00 0.00 74 1018.8
20260906004054 17 0.0 0.0 0.00 0.00 0.00 76 1018.7
20260906003554 17 0.0 0.0 0.00 0.00 0.00 79 1018.7
20260906003054 17 0.0 0.0 0.00 0.00 0.00 82 1018.8
20260906002554 17 0.0 0.0 0.00 0.00 0.00 81 1018.7
20260906002054 17 0.0 0.0 0.00 0.00 0.00 79 1018.6
20260906001554 17 0.0 0.0 0.00 0.00 0.00 77 1018.6
20260906001054 17 0.0 0.0 0.00 0.00 0.00 76 1018.7
20260906000554 18 0.0 0.0 0.00 0.00 0.00 74 1018.5
20260906000054 18 0.0 0.0 0.00 0.00 0.00 74 1018.5
20260905235554 18 0.0 0.0 0.00 0.00 0.00 74 1018.5
20260905235054 18 0.0 0.0 0.00 0.00 0.00 74 1018.5
20260905234554 18 0.0 0.0 0.00 0.00 0.00 75 1018.4
20260905234054 17 0.0 0.0 0.00 0.00 0.00 77 1018.6
20260905233554 18 0.0 0.0 0.00 0.00 0.00 75 1018.6
20260905233054 17 0.0 0.0 0.00 0.00 0.00 75 1018.6
20260905232554 18 0.0 0.0 0.00 0.00 0.00 74 1018.5
20260905232054 18 0.0 0.0 0.00 0.00 0.00 72 1018.6
20260905231554 18 0.0 0.0 0.00 0.00 0.00 72 1018.5
20260905231054 18 0.0 0.0 0.00 0.00 0.00 72 1018.6
20260905230554 18 0.0 0.0 0.00 0.00 0.00 73 1018.5
20260905230054 18 0.0 0.0 0.00 0.00 0.00 76 1018.5
20260905225554 17 0.0 0.0 0.00 0.00 0.00 79 1018.5
20260905225054 17 0.0 0.0 0.00 0.00 0.00 78 1018.4
20260905224554 17 0.0 0.0 0.00 0.00 0.00 78 1018.3
20260905224054 17 0.0 0.0 0.00 0.00 0.00 77 1018.3
20260905223554 17 0.0 0.0 0.00 0.00 0.00 78 1018.3
20260905223054 17 0.0 0.0 0.00 0.00 0.00 79 1018.3
20260905222554 17 0.0 0.0 0.00 0.00 0.00 79 1018.3
20260905222054 17 0.0 0.0 0.00 0.00 0.00 79 1018.4
20260905221554 17 0.0 0.0 0.00 0.00 0.00 78 1018.4
20260905221054 18 0.0 0.0 0.00 0.00 0.00 74 1018.3
20260905220554 18 0.0 0.0 0.00 0.00 0.00 72 1018.2
20260905220054 18 0.0 0.0 0.00 0.00 0.00 71 1018.1
20260905215554 18 0.0 0.0 0.00 0.00 0.00 73 1018.1
20260905215054 18 0.0 0.0 0.00 0.00 0.00 75 1018.0
20260905214554 18 0.0 0.0 0.00 0.00 0.00 75 1017.9
20260905214054 18 0.0 0.0 0.00 0.00 0.00 73 1018.0
20260905213554 18 0.0 0.0 0.00 0.00 0.00 70 1018.0
20260905213054 18 0.0 0.0 0.00 0.00 0.00 75 1017.9
20260905212554 18 0.0 0.0 0.00 0.00 0.00 76 1018.0
20260905212054 17 0.0 0.0 0.00 0.00 0.00 76 1018.0
20260905211554 18 0.0 0.0 0.00 0.00 0.00 74 1017.9
20260905211054 18 0.0 0.0 0.00 0.00 0.00 69 1017.8
20260905210554 19 0.0 0.0 0.00 0.00 0.00 68 1017.7
20260905210054 20 0.0 0.0 0.00 0.00 0.00 67 1017.6
20260905205554 20 0.0 0.0 0.00 0.00 0.00 66 1017.4
20260905205054 20 0.0 0.0 0.00 0.00 0.00 66 1017.4
20260905204554 20 0.0 0.0 0.00 0.00 0.00 66 1017.5
20260905204054 19 0.0 0.0 0.00 0.00 0.00 68 1017.4
20260905203554 19 0.0 0.0 0.00 0.00 0.00 68 1017.4
20260905203054 20 0.0 0.0 0.00 0.00 0.00 67 1017.3
20260905202554 20 0.0 0.0 0.00 0.00 0.00 69 1017.3
20260905202054 20 0.0 0.0 0.00 0.00 0.00 67 1017.1
20260905201554 20 0.0 0.0 0.00 0.00 0.00 66 1017.2
20260905201056 20 0.0 0.0 0.00 0.00 0.00 64 1017.1
20260905200554 21 0.0 0.0 0.00 0.00 0.00 63 1017.0
20260905200054 21 0.0 0.0 0.00 0.00 0.00 64 1017.0
20260905195554 20 0.0 0.0 0.00 0.00 0.00 63 1016.9
20260905195054 21 0.0 0.0 0.00 0.00 0.00 63 1016.9
20260905194554 20 0.0 0.0 0.00 0.00 0.00 65 1016.8
20260905194054 20 0.0 0.0 0.00 0.00 0.00 66 1016.7
20260905193554 20 0.0 0.0 0.00 0.00 0.00 65 1016.8
20260905193054 20 0.0 0.0 0.00 0.00 0.00 66 1016.8
20260905192554 20 0.0 0.0 0.00 0.00 0.00 65 1016.6
20260905192054 21 0.0 0.0 0.00 0.00 0.00 66 1016.6
20260905191554 21 0.0 0.0 0.00 0.00 0.00 66 1016.5
20260905191058 20 0.0 0.0 0.00 0.00 0.00 66 1016.5
20260905190554 20 0.0 0.0 0.00 0.00 0.00 68 1016.4
20260905190054 21 0.0 0.0 0.00 0.00 0.00 68 1016.5
20260905185554 21 0.0 0.0 0.00 0.00 0.00 68 1016.3
20260905185054 21 0.0 0.0 0.00 0.00 0.00 67 1016.5
20260905184554 21 0.0 0.0 0.00 0.00 0.00 66 1016.4
20260905184054 21 0.0 0.0 0.00 0.00 0.00 68 1016.3
20260905183554 21 0.0 0.0 0.00 0.00 0.00 68 1016.3
20260905183054 21 0.0 0.0 0.00 0.00 0.00 69 1016.2
20260905182554 21 0.0 0.0 0.00 0.00 0.00 68 1016.0
20260905182054 21 0.0 0.0 0.00 0.00 0.00 69 1016.0
20260905181554 21 0.0 0.0 0.00 0.00 0.00 70 1015.8
20260905181054 21 0.0 0.0 0.00 0.00 0.00 68 1015.8
20260905180555 22 0.0 0.0 0.00 0.00 0.00 69 1015.7
20260905180054 21 0.0 0.0 0.00 0.00 0.00 70 1015.7
20260905175554 21 0.0 0.0 0.00 0.00 0.00 69 1015.6
20260905175054 21 0.0 0.0 0.00 0.00 0.00 68 1015.5
20260905174554 21 0.0 0.0 0.00 0.00 0.00 68 1015.5
20260905174054 21 0.0 0.0 0.00 0.00 0.00 67 1015.7
20260905173556 21 0.0 0.0 0.00 0.00 0.00 68 1015.7
20260905173054 21 0.0 0.0 0.00 0.00 0.00 66 1015.3
20260905172554 21 0.0 0.0 0.00 0.00 0.00 63 1015.1
20260905172054 21 0.0 0.0 0.00 0.00 0.00 59 1015.2
20260905171553 22 0.0 0.0 0.00 0.00 0.00 55 1015.3
20260905171054 22 0.0 0.0 0.00 0.00 0.00 50 1015.3
20260905170554 23 0.0 0.0 0.00 0.00 0.00 41 1015.0
20260905170054 23 0.0 0.0 0.00 0.00 0.00 39 1015.2
20260905165554 24 0.0 0.0 0.00 0.00 0.00 36 1015.2
20260905165054 24 0.0 0.0 0.00 0.00 0.00 35 1015.1
20260905164554 24 0.0 0.0 0.00 0.00 0.00 35 1015.2
20260905164054 24 0.0 0.0 0.00 0.00 0.00 35 1015.3
20260905163554 24 0.0 0.0 0.00 0.00 0.00 35 1015.2
20260905163054 24 0.0 0.0 0.00 0.00 0.00 35 1015.1
20260905162554 24 0.0 0.0 0.00 0.00 0.00 34 1014.9
20260905162054 24 0.0 0.0 0.00 0.00 0.00 34 1015.1
20260905161554 25 0.0 0.0 0.00 0.00 0.00 34 1014.9
20260905161054 25 0.0 0.0 0.00 0.00 0.00 34 1014.9
20260905160554 25 0.0 0.0 0.00 0.00 0.00 34 1014.8
20260905160054 25 0.0 0.0 0.00 0.00 0.00 34 1014.8
20260905155553 25 0.0 0.0 0.00 0.00 0.00 34 1014.8
20260905155054 25 0.0 0.0 0.00 0.00 0.00 33 1014.8
20260905154553 25 0.0 0.0 0.00 0.00 0.00 35 1014.8
20260905154056 25 0.0 0.0 0.00 0.00 0.00 36 1014.8
20260905153554 25 0.0 0.0 0.00 0.00 0.00 36 1014.8
20260905153054 25 0.0 0.0 0.00 0.00 0.00 36 1014.8
20260905152554 25 0.0 0.0 0.00 0.00 0.00 36 1014.9
20260905152054 24 0.0 0.0 0.00 0.00 0.00 38 1014.9
20260905151553 24 0.0 0.0 0.00 0.00 0.00 38 1015.0
20260905151054 23 0.0 0.0 0.00 0.00 0.00 38 1015.0
20260905150554 23 0.0 0.0 0.00 0.00 0.00 38 1015.0
20260905150053 23 0.0 0.0 0.00 0.00 0.00 39 1014.8
20260905145553 24 0.0 0.0 0.00 0.00 0.00 38 1014.8
20260905145053 24 0.0 0.0 0.00 0.00 0.00 38 1014.8
20260905144553 24 0.0 0.0 0.00 0.00 0.00 38 1014.9
20260905144054 23 0.0 0.0 0.00 0.00 0.00 38 1014.7
20260905143554 23 0.0 0.0 0.00 0.00 0.00 38 1015.0
20260905143053 24 0.0 0.0 0.00 0.00 0.00 38 1014.8
20260905142554 24 0.0 0.0 0.00 0.00 0.00 37 1014.7
20260905142053 25 0.0 0.0 0.00 0.00 0.00 34 1014.9
20260905141553 25 0.0 0.0 0.00 0.00 0.00 32 1014.7
20260905141053 25 0.0 0.0 0.00 0.00 0.00 30 1014.6
20260905140554 26 0.0 0.0 0.00 0.00 0.00 31 1014.5
20260905140053 26 0.0 0.0 0.00 0.00 0.00 30 1014.3
20260905135553 27 0.0 0.0 0.00 0.00 0.00 28 1014.3
20260905135053 28 0.0 0.0 0.00 0.00 0.00 26 1013.9
20260905134553 28 0.0 0.0 0.00 0.00 0.00 26 1013.7
20260905134054 28 0.0 0.0 0.00 0.00 0.00 24 1013.7
20260905133553 28 0.0 0.0 0.00 0.00 0.00 25 1013.8
20260905133053 29 0.0 0.0 0.00 0.00 0.00 23 1013.9
20260905132553 29 0.0 0.0 0.00 0.00 0.00 23 1013.7
20260905132053 30 0.0 0.0 0.00 0.00 0.00 21 1013.8
20260905131553 30 0.0 0.0 0.00 0.00 0.00 20 1013.8
20260905131053 30 0.0 0.0 0.00 0.00 0.00 19 1013.8
20260905130554 30 0.0 0.0 0.00 0.00 0.00 19 1013.7
20260905130053 30 0.0 0.0 0.00 0.00 0.00 19 1013.5
20260905125553 31 0.0 0.0 0.00 0.00 0.00 18 1013.5
20260905125053 30 0.0 0.0 0.00 0.00 0.00 18 1013.5
20260905124553 31 0.0 0.0 0.00 0.00 0.00 18 1013.5
20260905124053 31 0.0 0.0 0.00 0.00 0.00 17 1013.5
20260905123557 32 0.0 0.0 0.00 0.00 0.00 17 1013.5
20260905123053 32 0.0 0.0 0.00 0.00 0.00 16 1013.6
20260905122553 32 0.0 0.0 0.00 0.00 0.00 18 1013.3
20260905122053 31 0.0 0.0 0.00 0.00 0.00 17 1013.4
20260905121553 32 0.0 0.0 0.00 0.00 0.00 17 1013.3
20260905121053 32 0.0 0.0 0.00 0.00 0.00 17 1013.3
20260905120553 32 0.0 0.0 0.00 0.00 0.00 18 1013.2
20260905120054 32 0.0 0.0 0.00 0.00 0.00 18 1013.4
20260905115553 32 0.0 0.0 0.00 0.00 0.00 18 1013.4
20260905115053 32 0.0 0.0 0.00 0.00 0.00 18 1013.4
20260905114553 32 0.0 0.0 0.00 0.00 0.00 18 1013.3
20260905114053 32 0.0 0.0 0.00 0.00 0.00 17 1013.2
20260905113553 32 0.0 0.0 0.00 0.00 0.00 19 1013.1
20260905113053 32 0.0 0.0 0.00 0.00 0.00 19 1013.1
20260905112553 32 0.0 0.0 0.00 0.00 0.00 19 1013.1
20260905112053 32 0.0 0.0 0.00 0.00 0.00 19 1013.1
20260905111553 31 0.0 0.0 0.00 0.00 0.00 19 1013.3
20260905111053 31 0.0 0.0 0.00 0.00 0.00 19 1013.3
20260905110553 31 0.0 0.0 0.00 0.00 0.00 20 1013.3
20260905110053 31 0.0 0.0 0.00 0.00 0.00 21 1013.4
20260905105553 31 0.0 0.0 0.00 0.00 0.00 22 1013.3
20260905105053 31 0.0 0.0 0.00 0.00 0.00 23 1013.4
20260905104553 30 0.0 0.0 0.00 0.00 0.00 23 1013.5
20260905104053 31 0.0 0.0 0.00 0.00 0.00 23 1013.6
20260905103553 31 0.0 0.0 0.00 0.00 0.00 24 1013.5
20260905103053 30 0.0 0.0 0.00 0.00 0.00 25 1013.4
20260905102553 30 0.0 0.0 0.00 0.00 0.00 26 1013.6
20260905102056 30 0.0 0.0 0.00 0.00 0.00 27 1013.5
20260905101553 31 0.0 0.0 0.00 0.00 0.00 28 1013.4
20260905101053 34 0.0 0.0 0.00 0.00 0.00 23 1013.2
20260905100553 33 0.0 0.0 0.00 0.00 0.00 25 1013.1
20260905100053 35 0.0 0.0 0.00 0.00 0.00 22 1012.7
20260905095553 35 0.0 0.0 0.00 0.00 0.00 21 1012.7
20260905095053 37 0.0 0.0 0.00 0.00 0.00 20 1012.5
20260905094553 37 0.0 0.0 0.00 0.00 0.00 19 1012.5
20260905094053 38 0.0 0.0 0.00 0.00 0.00 17 1012.3
20260905093553 38 0.0 0.0 0.00 0.00 0.00 18 1012.1
20260905093053 36 0.0 0.0 0.00 0.00 0.00 20 1012.1
20260905092553 36 0.0 0.0 0.00 0.00 0.00 19 1012.1
20260905092053 36 0.0 0.0 0.00 0.00 0.00 19 1012.0
20260905091553 36 0.0 0.0 0.00 0.00 0.00 21 1012.0
20260905091053 35 0.0 0.0 0.00 0.00 0.00 20 1012.0
20260905090553 35 0.0 0.0 0.00 0.00 0.00 20 1011.8
20260905090053 35 0.0 0.0 0.00 0.00 0.00 20 1011.9
20260905085553 35 0.0 0.0 0.00 0.00 0.00 21 1012.0
20260905085053 36 0.0 0.0 0.00 0.00 0.00 20 1011.8
20260905084553 35 0.0 0.0 0.00 0.00 0.00 20 1011.6
20260905084053 35 0.0 0.0 0.00 0.00 0.00 21 1011.6
20260905083553 35 0.0 0.0 0.00 0.00 0.00 20 1011.5
20260905083053 35 0.0 0.0 0.00 0.00 0.00 20 1011.4
20260905082553 35 0.0 0.0 0.00 0.00 0.00 21 1011.4
20260905082053 35 0.0 0.0 0.00 0.00 0.00 22 1011.3
20260905081553 35 0.0 0.0 0.00 0.00 0.00 22 1011.4
20260905081053 33 0.0 0.0 0.00 0.00 0.00 22 1011.4
20260905080553 34 0.0 0.0 0.00 0.00 0.00 22 1011.2
20260905080053 34 0.0 0.0 0.00 0.00 0.00 21 1011.2
20260905075553 35 0.0 0.0 0.00 0.00 0.00 21 1011.0
20260905075053 33 0.0 0.0 0.00 0.00 0.00 22 1010.9
20260905074553 33 0.0 0.0 0.00 0.00 0.00 22 1010.9
20260905074053 34 0.0 0.0 0.00 0.00 0.00 22 1010.9
20260905073553 33 0.0 0.0 0.00 0.00 0.00 23 1010.9
20260905073053 33 0.0 0.0 0.00 0.00 0.00 24 1010.9
20260905072553 32 0.0 0.0 0.00 0.00 0.00 24 1010.8
20260905072053 32 0.0 0.0 0.00 0.00 0.00 25 1010.8
20260905071553 31 0.0 0.0 0.00 0.00 0.00 25 1010.9
20260905071053 32 0.0 0.0 0.00 0.00 0.00 25 1010.8
20260905070553 31 0.0 0.0 0.00 0.00 0.00 26 1010.8
20260905070053 31 0.0 0.0 0.00 0.00 0.00 26 1010.8
20260905065553 31 0.0 0.0 0.00 0.00 0.00 26 1010.9
20260905065053 31 0.0 0.0 0.00 0.00 0.00 27 1010.9
20260905064553 30 0.0 0.0 0.00 0.00 0.00 27 1010.8
20260905064053 30 0.0 0.0 0.00 0.00 0.00 27 1010.7
20260905063553 30 0.0 0.0 0.00 0.00 0.00 28 1010.8
20260905063053 30 0.0 0.0 0.00 0.00 0.00 28 1010.7
20260905062553 29 0.0 0.0 0.00 0.00 0.00 28 1010.7
20260905062053 28 0.0 0.0 0.00 0.00 0.00 29 1010.7
20260905061553 28 0.0 0.0 0.00 0.00 0.00 30 1010.8
20260905061053 28 0.0 0.0 0.00 0.00 0.00 30 1010.9
20260905060553 28 0.0 0.0 0.00 0.00 0.00 30 1010.9
20260905060053 28 0.0 0.0 0.00 0.00 0.00 31 1010.9
20260905055553 27 0.0 0.0 0.00 0.00 0.00 31 1010.9
20260905055053 27 0.0 0.0 0.00 0.00 0.00 32 1010.9
20260905054553 27 0.0 0.0 0.00 0.00 0.00 33 1010.8
20260905054053 26 0.0 0.0 0.00 0.00 0.00 33 1010.8
20260905053553 26 0.0 0.0 0.00 0.00 0.00 33 1010.8
20260905053053 26 0.0 0.0 0.00 0.00 0.00 34 1010.9
20260905052553 26 0.0 0.0 0.00 0.00 0.00 34 1010.8
20260905052053 26 0.0 0.0 0.00 0.00 0.00 34 1010.8
20260905051553 25 0.0 0.0 0.00 0.00 0.00 34 1010.8
20260905051053 25 0.0 0.0 0.00 0.00 0.00 35 1010.8
20260905050553 26 0.0 0.0 0.00 0.00 0.00 34 1010.8
20260905050053 25 0.0 0.0 0.00 0.00 0.00 34 1010.8
20260905045553 25 0.0 0.0 0.00 0.00 0.00 34 1010.8
20260905045053 25 0.0 0.0 0.00 0.00 0.00 34 1010.7
20260905044553 25 0.0 0.0 0.00 0.00 0.00 35 1010.7
20260905044053 25 0.0 0.0 0.00 0.00 0.00 35 1010.6
20260905043553 25 0.0 0.0 0.00 0.00 0.00 35 1010.6
20260905043053 25 0.0 0.0 0.00 0.00 0.00 34 1010.6
20260905042553 25 0.0 0.0 0.00 0.00 0.00 35 1010.6
20260905042053 25 0.0 0.0 0.00 0.00 0.00 34 1010.6
20260905041553 25 0.0 0.0 0.00 0.00 0.00 34 1010.6
20260905041053 25 0.0 0.0 0.00 0.00 0.00 34 1010.5
20260905040553 25 0.0 0.0 0.00 0.00 0.00 34 1010.4
20260905040053 25 0.0 0.0 0.00 0.00 0.00 34 1010.5
20260905035553 25 0.0 0.0 0.00 0.00 0.00 34 1010.5
20260905035053 25 0.0 0.0 0.00 0.00 0.00 34 1010.4
20260905034553 25 0.0 0.0 0.00 0.00 0.00 34 1010.4
20260905034053 25 0.0 0.0 0.00 0.00 0.00 35 1010.4
20260905033553 25 0.0 0.0 0.00 0.00 0.00 34 1010.3
20260905033053 25 0.0 0.0 0.00 0.00 0.00 34 1010.4
20260905032553 25 0.0 0.0 0.00 0.00 0.00 34 1010.4
20260905032053 25 0.0 0.0 0.00 0.00 0.00 34 1010.4
20260905031553 25 0.0 0.0 0.00 0.00 0.00 34 1010.3
20260905031053 25 0.0 0.0 0.00 0.00 0.00 34 1010.3
20260905030553 25 0.0 0.0 0.00 0.00 0.00 33 1010.3
20260905030053 25 0.0 0.0 0.00 0.00 0.00 34 1010.4
20260905025553 25 0.0 0.0 0.00 0.00 0.00 33 1010.4
20260905025053 25 0.0 0.0 0.00 0.00 0.00 34 1010.3
20260905024553 25 0.0 0.0 0.00 0.00 0.00 33 1010.3
20260905024053 26 0.0 0.0 0.00 0.00 0.00 33 1010.2
20260905023553 26 0.0 0.0 0.00 0.00 0.00 33 1010.2
20260905023053 25 0.0 0.0 0.00 0.00 0.00 33 1010.3
20260905022553 25 0.0 0.0 0.00 0.00 0.00 33 1010.3
20260905022053 26 0.0 0.0 0.00 0.00 0.00 33 1010.2
20260905021553 25 0.0 0.0 0.00 0.00 0.00 34 1010.4
20260905021053 25 0.0 0.0 0.00 0.00 0.00 33 1010.3
20260905020553 25 0.0 0.0 0.00 0.00 0.00 33 1010.3
20260905020053 25 0.0 0.0 0.00 0.00 0.00 34 1010.5
20260905015553 25 0.0 0.0 0.00 0.00 0.00 33 1010.4
20260905015053 25 0.0 0.0 0.00 0.00 0.00 33 1010.4
20260905014553 26 0.0 0.0 0.00 0.00 0.00 33 1010.5
20260905014053 26 0.0 0.0 0.00 0.00 0.00 32 1010.4
20260905013553 26 0.0 0.0 0.00 0.00 0.00 33 1010.6
20260905013053 26 0.0 0.0 0.00 0.00 0.00 32 1010.5
20260905012553 26 0.0 0.0 0.00 0.00 0.00 32 1010.5
20260905012053 26 0.0 0.0 0.00 0.00 0.00 32 1010.5
20260905011553 26 0.0 0.0 0.00 0.00 0.00 32 1010.4
20260905011053 26 0.0 0.0 0.00 0.00 0.00 32 1010.4